COLUMBIA (42702 NORAD) Tracking and Keplerian Element Data

This shows tracking and keplerian element data for the satellite.

Feedback or suggestion? Click here.




ElementValue
Catalog42702
NameCOLUMBIA
Epoch Orbit4624
Epoch Day66.37622415
Epoch Year2018
RAAN131.6862
Inclination51.6147
Eccentricity0.0001623
Argument of Perigee340.6009
Mean Anonmoly19.7898
Mean Motion16.42105255
Decay Rate0.22640365
L11 42702U 98067LK 18066.37622415 .22640365 12480-4 12628-2 0 9994
L22 42702 51.6147 131.6862 0001623 340.6009 19.7898 16.42105255 46241

Live tracking and technical data element details for COLUMBIA (NORAD 42702). COLUMBIA can be tracked NOW for your location showing map with azimuth and elevation plus other details from your city location.

Track the satellite on the map from your city or location and see movement details for azimuth, elevation, latitude, longitude, range, height, and movement on the map or in text.







IsCatalogInMostPopularTable: catalog: 42702, numindb: 132
Update: records affected: 1



GetName: 42702 COLUMBIA

Hit Count: updated at: Mon, 23 Jul 2018 07:42:48 GMT